Weather reports worldwide

Advertisment
UFS Deutsche Bucht, Germany (10007): temperature & dewpoint: 10.08.2018 13:00:00 - 16.08.2018 13:00:00 (CEST)UFS Deutsche Bucht, Germany (10007): wind speed & gusts: 10.08.2018 13:00:00 - 16.08.2018 13:00:00 (CEST)UFS Deutsche Bucht, Germany (10007): wind direction: 10.08.2018 13:00:00 - 16.08.2018 13:00:00 (CEST)UFS Deutsche Bucht, Germany (10007): reduced air pressure: 10.08.2018 13:00:00 - 16.08.2018 13:00:00 (CEST)UFS Deutsche Bucht, Germany (10007): visibility: 10.08.2018 13:00:00 - 16.08.2018 13:00:00 (CEST)UFS Deutsche Bucht, Germany (10007): sunshine duration: 10.08.2018 13:00:00 - 16.08.2018 13:00:00 (CEST)
Date & Time tt [°C] td [°C] ff [km/h] ff [kn] fx [km/h] fx [kn] dd ppp [hPa] vv [km] sd [min]
16.08.2018 13:00:00 19,0 16,4 36 19 47 25 SSW 1013,8 10 0
16.08.2018 12:00:00 18,8 16,1 40 21 47 25 SSW 1013,6 10 30
16.08.2018 11:00:00 18,4 15,8 36 19 - - SSW 1013,7 0,9 54
16.08.2018 10:00:00 18,1 15,9 36 19 - - SSW 1014,0 9 60
16.08.2018 09:00:00 18,1 15,9 36 19 - - SSW 1014,0 10 42
16.08.2018 08:00:00 18,3 16,0 36 19 - - SSW 1014,3 10 0
16.08.2018 07:00:00 18,8 16,1 32 18 - - S 1014,5 10 0
16.08.2018 06:00:00 18,7 16,5 32 18 - - S 1014,4 9 0
16.08.2018 05:00:00 18,8 16,5 29 16 - - S 1014,6 9 0
16.08.2018 04:00:00 19,0 16,7 22 12 - - SSW 1015,0 10 0
16.08.2018 03:00:00 19,2 16,4 25 14 - - SW 1015,4 10 0
16.08.2018 02:00:00 19,2 16,6 25 14 - - SSW 1015,9 10 0
16.08.2018 01:00:00 19,3 16,6 25 14 - - SSW 1016,3 10 0
16.08.2018 00:00:00 19,4 16,8 25 14 - - SW 1016,5 10 0
15.08.2018 23:00:00 19,5 16,8 22 12 - - SW 1016,7 10 0
15.08.2018 22:00:00 19,4 17,0 18 10 - - WSW 1017,0 10 0
15.08.2018 21:00:00 19,5 17,3 18 10 - - SW 1016,9 10 0
15.08.2018 20:00:00 19,4 17,6 18 10 - - SW 1016,7 9 0
15.08.2018 19:00:00 19,5 17,7 14 8 - - SSW 1016,7 10 0
15.08.2018 18:00:00 19,4 17,5 14 8 - - SSW 1016,9 10 18
15.08.2018 17:00:00 19,6 17,1 11 6 - - SW 1016,6 10 54
15.08.2018 16:00:00 19,6 17,1 14 8 - - SW 1016,8 10 60
15.08.2018 15:00:00 19,5 17,2 22 12 - - SW 1016,8 10 60
15.08.2018 14:00:00 19,4 17,0 18 10 - - SW 1016,8 10 54
15.08.2018 13:00:00 19,3 16,8 18 10 - - SW 1016,5 10 18
15.08.2018 12:00:00 19,1 17,0 11 6 - - WSW 1016,6 10 6
15.08.2018 11:00:00 18,9 16,8 14 8 - - SW 1016,5 10 0
15.08.2018 10:00:00 19,0 16,5 14 8 - - W 1016,1 10 0
15.08.2018 09:00:00 18,8 16,7 14 8 - - WSW 1015,7 10 0
15.08.2018 08:00:00 18,7 16,5 18 10 - - W 1015,3 10 0
15.08.2018 07:00:00 18,4 16,2 14 8 - - WSW 1015,1 10 0
15.08.2018 06:00:00 18,3 16,1 18 10 - - WSW 1014,9 10 0
15.08.2018 05:00:00 18,4 15,3 22 12 - - W 1015,0 10 0
15.08.2018 04:00:00 18,2 15,4 25 14 - - W 1015,0 10 0
15.08.2018 03:00:00 18,3 16,0 22 12 - - WSW 1014,8 10 0
15.08.2018 02:00:00 18,2 15,6 22 12 - - W 1014,8 10 0
15.08.2018 01:00:00 18,3 15,7 22 12 - - W 1014,9 10 0
15.08.2018 00:00:00 18,2 14,5 22 12 - - W 1014,9 10 0
14.08.2018 23:00:00 18,3 14,5 22 12 - - W 1014,9 10 0
14.08.2018 22:00:00 18,3 14,0 29 16 - - WNW 1014,9 10 0
14.08.2018 21:00:00 18,2 13,5 36 19 - - NW 1014,1 10 0
14.08.2018 20:00:00 18,3 14,3 36 19 - - NW 1013,3 10 12
14.08.2018 19:00:00 18,4 15,4 43 23 54 29 WNW 1012,8 10 6
14.08.2018 18:00:00 18,4 16,1 40 21 50 27 WNW 1012,2 10 18
14.08.2018 17:00:00 18,4 16,4 43 23 - - WNW 1011,6 10 6
14.08.2018 16:00:00 18,8 17,0 29 16 - - W 1011,1 10 0
14.08.2018 15:00:00 18,8 16,7 25 14 - - W 1010,3 10 36
14.08.2018 14:00:00 18,5 17,0 22 12 - - W 1009,8 9 60
14.08.2018 13:00:00 18,7 16,7 22 12 - - W 1009,3 10 60
14.08.2018 12:00:00 18,6 16,7 18 10 - - W 1008,7 10 60
14.08.2018 11:00:00 18,4 16,7 18 10 - - W 1008,2 10 42
14.08.2018 10:00:00 18,3 16,6 14 8 - - W 1007,8 10 60
14.08.2018 09:00:00 18,9 16,9 14 8 - - WNW 1007,2 10 60
14.08.2018 08:00:00 19,4 17,5 14 8 - - WNW 1006,5 10 54
14.08.2018 07:00:00 18,1 16,7 11 6 - - WNW 1005,9 10 0
14.08.2018 06:00:00 18,1 16,5 14 8 - - W 1005,4 10 0
14.08.2018 05:00:00 18,1 16,4 18 10 - - W 1005,3 10 0
14.08.2018 04:00:00 18,2 16,3 25 14 - - W 1005,1 10 0
14.08.2018 03:00:00 18,1 16,8 22 12 - - WSW 1004,9 10 0
14.08.2018 02:00:00 17,7 16,5 25 14 - - W 1004,9 10 0
14.08.2018 01:00:00 17,9 16,2 29 16 - - W 1004,7 10 0
14.08.2018 00:00:00 17,9 16,1 29 16 - - W 1004,5 10 0
13.08.2018 23:00:00 18,2 16,6 14 8 - - WSW 1004,5 8 0
13.08.2018 22:00:00 17,8 15,7 11 6 - - SW 1004,3 10 0
13.08.2018 21:00:00 17,7 14,4 4 2 - - SE 1004,3 10 0
13.08.2018 20:00:00 17,4 15,1 14 8 - - E 1004,3 10 0
13.08.2018 19:00:00 17,5 15,5 4 2 - - SE 1004,1 2,8 0
13.08.2018 18:00:00 18,3 16,0 18 10 - - SSW 1004,5 7 0
13.08.2018 17:00:00 19,6 15,8 7 4 - - S 1004,1 10 24
13.08.2018 16:00:00 19,6 16,2 4 2 - - NE 1004,1 10 0
13.08.2018 15:00:00 18,9 16,5 11 6 - - ESE 1004,7 10 0
13.08.2018 14:00:00 19,1 16,7 14 8 - - E 1004,9 10 0
13.08.2018 13:00:00 19,0 16,8 4 2 - - S 1005,3 10 0
13.08.2018 12:00:00 19,4 16,6 7 4 - - SE 1005,1 10 0
13.08.2018 11:00:00 19,2 16,8 14 8 - - ESE 1005,4 10 0
13.08.2018 10:00:00 19,1 16,9 14 8 - - ESE 1005,7 10 0
13.08.2018 09:00:00 19,2 16,6 18 10 - - SE 1006,1 10 0
13.08.2018 08:00:00 19,0 16,6 14 8 - - E 1006,2 10 0
13.08.2018 07:00:00 18,9 16,3 14 8 - - E 1006,0 10 0
13.08.2018 06:00:00 19,3 16,3 14 8 - - E 1006,5 10 0
13.08.2018 05:00:00 19,3 16,4 11 6 - - SE 1007,0 10 0
13.08.2018 04:00:00 19,3 16,6 14 8 - - SSE 1007,4 10 0
13.08.2018 03:00:00 19,1 17,1 14 8 - - SSE 1007,7 10 0
13.08.2018 02:00:00 19,5 16,8 14 8 - - S 1008,3 10 0
13.08.2018 01:00:00 19,5 16,3 14 8 - - SSW 1008,7 10 0
13.08.2018 00:00:00 19,6 16,6 14 8 - - SSW 1009,2 10 0
12.08.2018 23:00:00 19,5 16,3 11 6 - - SSW 1009,6 10 0
12.08.2018 22:00:00 19,8 16,0 14 8 - - WSW 1009,8 10 0
12.08.2018 21:00:00 20,0 16,2 22 12 - - SW 1010,1 10 0
12.08.2018 20:00:00 20,0 16,3 25 14 - - SW 1010,2 10 0
12.08.2018 19:00:00 20,0 15,9 25 14 47 25 SW 1010,5 10 0
12.08.2018 18:00:00 20,3 15,3 32 18 50 27 SW 1010,9 10 6
12.08.2018 17:00:00 20,1 15,8 29 16 - - SSW 1011,2 10 18
12.08.2018 16:00:00 19,1 15,5 22 12 - - S 1012,0 10 0
12.08.2018 15:00:00 18,0 14,4 25 14 - - S 1012,8 10 0
12.08.2018 14:00:00 16,9 13,5 25 14 - - SSE 1013,3 10 0
12.08.2018 13:00:00 16,3 12,2 14 8 - - S 1014,3 10 0
12.08.2018 12:00:00 16,8 11,8 25 14 - - S 1014,8 10 0
12.08.2018 11:00:00 16,9 11,7 25 14 - - SSW 1015,2 10 0
12.08.2018 10:00:00 16,6 11,9 29 16 - - SSW 1015,5 10 0
12.08.2018 09:00:00 16,6 12,9 29 16 - - SSW 1015,9 10 6
12.08.2018 08:00:00 17,2 11,3 25 14 - - SW 1016,2 10 0
12.08.2018 07:00:00 17,6 11,0 18 10 - - WSW 1016,6 10 0
12.08.2018 06:00:00 17,2 11,7 18 10 - - WSW 1016,7 10 0
12.08.2018 05:00:00 17,1 10,2 25 14 - - W 1017,0 10 0
12.08.2018 04:00:00 17,0 9,2 25 14 - - W 1017,4 10 0
12.08.2018 03:00:00 17,0 10,5 25 14 - - W 1017,9 10 0
12.08.2018 02:00:00 17,0 10,9 25 14 - - W 1018,1 10 0
12.08.2018 01:00:00 17,0 11,4 25 14 - - W 1018,7 10 0
12.08.2018 00:00:00 17,1 11,8 32 18 - - W 1019,0 10 0
11.08.2018 23:00:00 16,8 12,5 22 12 - - W 1019,4 10 0
11.08.2018 22:00:00 17,6 11,2 25 14 - - W 1019,5 10 0
11.08.2018 21:00:00 17,6 10,8 32 18 - - W 1019,3 10 30
11.08.2018 20:00:00 17,9 10,3 29 16 - - W 1019,4 10 54
11.08.2018 19:00:00 17,7 11,5 32 18 47 25 WNW 1019,4 10 48
11.08.2018 18:00:00 17,6 10,8 40 21 50 27 WNW 1019,1 10 60
11.08.2018 17:00:00 17,6 12,2 36 19 - - WNW 1019,0 10 60
11.08.2018 16:00:00 17,4 10,1 43 23 50 27 WNW 1018,5 10 54
11.08.2018 15:00:00 17,1 10,7 40 21 54 29 WNW 1018,2 3,5 60
11.08.2018 14:00:00 16,7 11,2 43 23 - - WNW 1017,5 1,7 36
11.08.2018 13:00:00 16,5 10,9 40 21 58 31 W 1017,1 9 42
11.08.2018 12:00:00 16,7 11,2 47 25 54 29 W 1016,5 10 30
11.08.2018 11:00:00 16,4 11,3 40 21 - - WNW 1015,9 10 0
11.08.2018 10:00:00 15,6 11,9 32 18 61 33 W 1015,3 10 0
11.08.2018 09:00:00 14,5 11,2 40 21 54 29 W 1015,1 8 0
11.08.2018 08:00:00 15,8 12,2 36 19 - - WSW 1014,8 10 0
11.08.2018 07:00:00 16,1 11,0 40 21 54 29 WSW 1014,5 10 0
11.08.2018 06:00:00 16,7 11,2 40 21 50 27 W 1014,1 10 0
11.08.2018 05:00:00 15,5 12,1 40 21 - - SSW 1014,3 10 0
11.08.2018 04:00:00 15,6 11,9 43 23 65 35 SW 1014,6 10 0
11.08.2018 03:00:00 16,7 12,2 47 25 61 33 SW 1014,9 10 0
11.08.2018 02:00:00 16,5 12,7 50 27 - - SW 1015,0 9 0
11.08.2018 01:00:00 17,2 13,3 47 25 58 31 SSW 1015,7 10 0
11.08.2018 00:00:00 16,8 13,1 43 23 58 31 S 1016,1 8 0
10.08.2018 23:00:00 17,8 13,1 32 18 - - SSE 1016,0 10 0
10.08.2018 22:00:00 17,8 12,9 32 18 - - S 1016,9 10 0
10.08.2018 21:00:00 17,7 12,4 25 14 - - S 1017,5 10 18
10.08.2018 20:00:00 17,2 12,4 25 14 - - SSW 1018,2 10 48
10.08.2018 19:00:00 17,0 10,9 22 12 - - SW 1018,9 10 36
10.08.2018 18:00:00 17,7 10,8 36 19 50 27 SSW 1018,9 10 30
10.08.2018 17:00:00 16,8 11,6 43 23 - - SW 1018,9 10 6
10.08.2018 16:00:00 17,5 12,5 36 19 54 29 SW 1018,9 10 0
10.08.2018 15:00:00 16,3 10,1 36 19 54 29 SW 1018,5 10 18
10.08.2018 14:00:00 17,0 12,2 40 21 - - WSW 1018,3 10 18
10.08.2018 13:00:00 16,1 11,0 29 16 50 27 W 1018,1 10 12

tt = temperature
td = dewpoint
ff = wind speed
fx = gusts
dd = wind direction
ppp = reduced air pressure
vv = visibility
sd = sunshine duration

Next stations